Preview of NWS' New Version of Forecast
This preview is not operational and should not be used for support decisions.

Regional Weather Roundup (RWR)

Issued by National Weather Service (NWS)

                            
000
ASUS43 KDMX 180506
RWRIA 

WEATHER ROUNDUP FOR IOWA
NATIONAL WEATHER SERVICE DES MOINES IA
1200 AM CDT TUE JUN 18 2019

NOTE: "FAIR" INDICATES FEW OR NO CLOUDS BELOW 12,000 FEET WITH NO
SIGNIFICANT WEATHER AND/OR OBSTRUCTIONS TO VISIBILITY.

* - THESE STATIONS ARE NOT NWS STATIONS...THUS NOT UNDER NWS
QUALITY CONTROL.  THEY ALSO DO NOT REPORT WEATHER SUCH 
AS PRECIPITATION OR FOG.  

IAZ001>003-012>014-020>022-031>034-043>046-180600-
   NORTHWEST IOWA
  
CITY           SKY/WX    TMP DP  RH WIND       PRES   REMARKS
CARROLL *      CLOUDY    64  64 100 S3        29.98S                  
CHEROKEE *     CLOUDY    64  64 100 CALM      30.00R FOG              
DENISON *      CLOUDY    66  64  94 CALM      30.01R                  
LE MARS *      CLOUDY    66  66 100 N5        30.01R                  
SHELDON *        N/A     64  64 100 NE6       30.00S                  
STORM LAKE *   MOCLDY    63  61  94 N6        29.97S FOG              
$$
 
IAZ055>058-069>071-079>083-090>094-180600-
   SOUTHWEST IOWA
  
CITY           SKY/WX    TMP DP  RH WIND       PRES   REMARKS
ATLANTIC *     PTCLDY    66  64  94 SE3       29.98R                  
AUDUBON *      CLEAR     64  63  94 CALM      30.00R                  
CLARINDA *     CLEAR     68  64  88 CALM      30.00S                  
COUNCIL BLFS * PTCLDY    66  66 100 NW5       29.98R                  
CRESTON *      MOCLDY    63  61  94 E6        30.00R                  
HARLAN  *      CLEAR     63  63 100 NW5       29.99R                  
LAMONI         PTCLDY    67  61  81 SE3       29.99R                  
RED OAK *      PTCLDY    68  63  83 E7        29.98S                  
SHENANDOAH *   CLEAR     70  64  83 CALM      29.96S                  
$$
 
IAZ047>049-059>061-072>074-084-180600-
   CENTRAL IOWA
  
CITY           SKY/WX    TMP DP  RH WIND       PRES   REMARKS
AMES           PTCLDY    68  64  87 CALM      29.98R                  
ANKENY *       CLOUDY    68  66  94 CALM      29.99R                  
BOONE *        CLOUDY    66  66 100 CALM      29.98R                  
CHARITON *     CLEAR     64  64 100 SE3       29.99R                  
DES MOINES     CLOUDY    70  64  81 E3        29.98R                  
GRINNELL*      CLEAR     65  61  87 SE5       30.00R                  
KNOXVILLE *    CLEAR     66  63  88 SE5       29.98R                  
MARSHALLTOWN   MOCLDY    67  67 100 E3        29.97S                  
NEWTON *       CLEAR     66  66 100 SE6       29.99R                  
PELLA *        CLEAR     66  62  85 SE3       29.99R                  
PERRY *        CLOUDY    66  66 100 CALM      29.98R                  
$$
 
IAZ004>006-015-016-023>025-035-036-180600-
   NORTH CENTRAL IOWA
  
CITY           SKY/WX    TMP DP  RH WIND       PRES   REMARKS
ALGONA *       MOCLDY    66  64  94 N6        30.00R                  
CLARION *      CLOUDY    64  64 100 NE3       30.00R                  
ESTHERVILLE    CLEAR     60  57  89 N6        30.01S                  
FORT DODGE *   MOCLDY    64  63  96 N5        30.01R                  
MASON CITY     PTCLDY    63  63 100 CALM      30.01R FOG              
FOREST CITY *  FOG       61  61 100 CALM      30.00R VSB 1/2          
IOWA FALLS *   CLOUDY    66  65  96 NE5       30.01R                  
$$

IAZ007>011-017>019-026>030-037>042-050>054-066-180600-
   NORTHEAST IOWA
  
CITY           SKY/WX    TMP DP  RH WIND       PRES   REMARKS
CEDAR RAPIDS   FAIR      62  61  96 SE7       29.98S                  
CHARLES CITY * CLOUDY    64  64 100 CALM      30.00R FOG              
CLINTON *      MOCLDY    61  59  93 E3        29.99F                  
DECORAH *      CLOUDY    64  63  94 S3        29.98S                  
DUBUQUE        FAIR      58  57  97 SW5       29.99F                  
MONTICELLO *   FAIR      61  61 100 CALM      29.99S                  
OELWEIN *      MOCLDY    64  64 100 SE3       30.00R                  
WATERLOO       FAIR      67  64  90 CALM      29.98R                  
$$
 
IAZ064-065-067-068-078-180600-
   EAST CENTRAL IOWA
  
CITY           SKY/WX    TMP DP  RH WIND       PRES   REMARKS
DAVENPORT      FAIR      61  57  87 CALM      30.00F                  
IOWA CITY      FAIR      63  60  90 SE6       30.00S                  
MT. PLEASANT * CLEAR     63  63 100 CALM      29.98F                  
MUSCATINE *    FAIR      61  59  94 CALM      29.99F                  
QUAD CITIES    FAIR      63  58  83 CALM      29.98S                  
$$
 
IAZ062-063-075>077-085>089-095>099-180600-
   SOUTHEAST IOWA
  
CITY           SKY/WX    TMP DP  RH WIND       PRES   REMARKS
BURLINGTON     CLEAR     63  58  83 NE6       29.98S                  
FAIRFIELD *    CLEAR     63  61  94 CALM      29.98R                  
FORT MADISON * CLEAR     63  63 100 CALM      29.99S                  
KEOKUK *       CLEAR     64  61  88 NE6       29.97S                  
OSKALOOSA *    FAIR      64  60  86 SE5       29.99R                  
CENTERVILLE *  FAIR      63  63 100 CALM      30.00R                  
OTTUMWA        CLEAR     64  60  87 SE5       29.98R                  
WASHINGTON *   CLEAR     61  61 100 E6        29.99F                  
$$

ABBREVIATIONS USED IN REMARKS
   TC - TEMPERATURES IN CELSIUS
  WCI - WIND CHILL INDEX
   HX - HEAT INDEX
  VSB - VISIBILITY  
$$